Date String (YYYY-MM-DD hh:mm:ss) UTC,Instrument flags,Ambient pressure (hPa),Sample flow (lpm),Bypass flow (lpm),Sample temperature (°C),Ambient temperature (°C),ASC tube jacket temperature (°C),LED temperature (°C),Box temperature (°C),Sample RH (%),Span deviation,Mass concentration (μg/m³),Mass concentration (μg/m³),Mass concentration (μg/m³)
DateTimeUTC,F1_M11,P_M11,Q1_M11,Q2_M11,T1_M11,T2_M11,T3_M11,T4_M11,T5_M11,U1_M11,ZSPAN_M11,X2_M11,X0_M11,X1_M11
2023-02-11 03:00:00,,0829.2,5.00,0.00,22.1,20.4,00.0,31.1,23.7,09.4,0000.0,0005.41,0017.59,0003.96
2023-02-11 03:01:00,,0829.2,5.03,0.00,22.1,20.2,00.0,31.1,23.6,09.4,0000.0,0005.42,0017.33,0003.95
2023-02-11 03:02:00,,0829.2,4.98,0.00,22.0,20.1,00.0,31.0,23.6,09.4,0000.0,0005.45,0017.90,0003.95
2023-02-11 03:03:00,,0829.2,5.00,0.00,22.0,20.1,00.0,31.0,23.6,09.4,0000.0,0005.41,0017.13,0003.96
2023-02-11 03:04:00,,0829.2,5.03,0.00,22.0,20.1,00.0,31.0,23.6,09.3,0000.0,0005.41,0016.45,0003.96
2023-02-11 03:05:00,,0829.2,4.99,0.00,21.9,20.1,00.0,31.0,23.6,09.5,0000.0,0005.42,0016.98,0003.95
2023-02-11 03:06:00,,0829.2,5.03,0.00,21.9,20.1,00.0,31.0,23.6,09.5,0000.0,0005.37,0016.32,0003.93
2023-02-11 03:07:00,,0829.2,4.96,0.00,21.9,20.1,00.0,31.0,23.5,09.5,0000.0,0005.27,0015.65,0003.93
2023-02-11 03:08:00,,0829.2,4.98,0.00,21.9,20.6,00.0,30.9,23.7,09.4,0000.0,0005.29,0015.75,0003.93
2023-02-11 03:09:00,,0829.2,5.05,0.00,22.0,21.8,00.0,30.9,24.0,09.3,0000.0,0005.32,0016.96,0003.94
2023-02-11 03:10:00,,0829.2,4.96,0.00,22.2,22.7,00.0,30.9,24.3,09.1,0000.0,0005.33,0017.79,0003.94
2023-02-11 03:11:00,,0829.2,4.98,0.00,22.3,22.4,00.0,31.0,24.3,09.0,0000.0,0005.41,0017.60,0003.94
2023-02-11 03:12:00,,0829.1,4.96,0.00,22.3,22.0,00.0,31.0,24.3,08.9,0000.0,0005.43,0017.09,0003.96
2023-02-11 03:13:00,,0829.1,5.02,0.00,22.3,21.5,00.0,31.0,24.1,08.9,0000.0,0005.41,0016.38,0003.97
2023-02-11 03:14:00,,0829.1,4.97,0.00,22.2,21.2,00.0,31.1,24.0,09.1,0000.0,0005.45,0016.16,0003.97
2023-02-11 03:15:00,,0829.1,5.00,0.00,22.2,20.8,00.0,31.1,23.9,09.1,0000.0,0005.46,0016.31,0003.97
2023-02-11 03:16:00,,0829.1,5.01,0.00,22.2,20.7,00.0,31.1,23.8,09.2,0000.0,0005.46,0016.03,0003.99
2023-02-11 03:17:00,,0829.1,5.01,0.00,22.2,20.6,00.0,31.1,23.8,09.3,0000.0,0005.49,0016.32,0004.01
2023-02-11 03:18:00,,0829.1,5.00,0.00,22.1,20.5,00.0,31.1,23.8,09.4,0000.0,0005.55,0017.14,0004.03
2023-02-11 03:19:00,,0829.1,5.02,0.00,22.1,20.4,00.0,31.1,23.8,09.4,0000.0,0005.56,0017.08,0004.03
2023-02-11 03:20:00,,0829.0,5.01,0.00,22.1,20.3,00.0,31.0,23.8,09.4,0000.0,0005.59,0016.12,0004.03
2023-02-11 03:21:00,,0829.1,5.00,0.00,22.1,20.3,00.0,31.0,23.8,09.3,0000.0,0005.58,0016.40,0004.03
2023-02-11 03:22:00,,0829.1,5.00,0.00,22.0,20.3,00.0,31.0,23.7,09.3,0000.0,0005.53,0017.50,0004.04
2023-02-11 03:23:00,,0829.0,5.02,0.00,22.0,20.2,00.0,31.0,23.7,09.2,0000.0,0005.48,0018.05,0004.04
2023-02-11 03:24:00,,0829.0,4.97,0.00,22.0,20.1,00.0,31.0,23.7,09.2,0000.0,0005.51,0018.88,0004.03
2023-02-11 03:25:00,,0829.0,5.01,0.00,22.0,20.1,00.0,31.0,23.6,09.2,0000.0,0005.52,0019.24,0004.04
2023-02-11 03:26:00,,0829.0,5.00,0.00,22.0,20.5,00.0,31.0,23.7,09.2,0000.0,0005.53,0020.07,0004.03
2023-02-11 03:27:00,,0829.0,4.98,0.00,22.1,21.7,00.0,30.9,24.0,09.0,0000.0,0005.55,0021.46,0004.03
2023-02-11 03:28:00,,0829.0,5.03,0.00,22.2,22.6,00.0,30.9,24.3,09.0,0000.0,0005.55,0022.98,0004.01
2023-02-11 03:29:00,,0829.0,4.98,0.00,22.3,22.5,00.0,31.0,24.3,08.9,0000.0,0005.50,0022.66,0003.98
2023-02-11 03:30:00,,0829.0,5.02,0.00,22.3,22.1,00.0,31.0,24.2,09.0,0000.0,0005.48,0023.55,0003.97
2023-02-11 03:31:00,,0829.0,4.99,0.00,22.3,21.6,00.0,31.1,24.1,08.9,0000.0,0005.39,0024.37,0003.95
2023-02-11 03:32:00,,0829.0,4.98,0.00,22.3,21.3,00.0,31.1,24.1,08.8,0000.0,0005.37,0025.64,0003.94
2023-02-11 03:33:00,,0829.1,4.98,0.00,22.3,21.1,00.0,31.1,24.0,08.8,0000.0,0005.40,0024.54,0003.94
2023-02-11 03:34:00,,0829.1,5.04,0.00,22.3,21.0,00.0,31.1,24.0,08.8,0000.0,0005.43,0024.67,0003.93
2023-02-11 03:35:00,,0829.1,5.00,0.00,22.3,20.8,00.0,31.1,24.0,09.0,0000.0,0005.38,0024.41,0003.93
2023-02-11 03:36:00,,0829.1,5.01,0.00,22.2,20.7,00.0,31.1,24.0,09.0,0000.0,0005.34,0023.89,0003.93
2023-02-11 03:37:00,,0829.0,4.99,0.00,22.2,20.6,00.0,31.1,23.9,09.2,0000.0,0005.33,0023.01,0003.93
2023-02-11 03:38:00,,0829.1,5.00,0.00,22.2,20.5,00.0,31.1,23.9,09.1,0000.0,0005.30,0021.18,0003.92
2023-02-11 03:39:00,,0829.1,4.99,0.00,22.2,20.5,00.0,31.1,23.9,09.0,0000.0,0005.28,0020.56,0003.93
2023-02-11 03:40:00,,0829.1,4.99,0.00,22.2,20.4,00.0,31.1,23.8,09.0,0000.0,0005.26,0020.75,0003.93
2023-02-11 03:41:00,,0829.2,4.98,0.00,22.1,20.4,00.0,31.1,23.8,09.0,0000.0,0005.24,0019.25,0003.92
2023-02-11 03:42:00,,0829.1,4.96,0.00,22.1,20.2,00.0,31.1,23.7,09.0,0000.0,0005.22,0018.31,0003.90
2023-02-11 03:43:00,,0829.1,5.00,0.00,22.0,20.1,00.0,31.0,23.6,09.0,0000.0,0005.17,0015.97,0003.89
2023-02-11 03:44:00,,0829.1,4.99,0.00,22.0,20.0,00.0,31.0,23.6,09.0,0000.0,0005.08,0015.06,0003.87
2023-02-11 03:45:00,,0829.0,4.97,0.00,22.0,20.3,00.0,31.0,23.7,09.0,0000.0,0005.04,0014.38,0003.85
2023-02-11 03:46:00,,0829.1,5.02,0.00,22.1,21.6,00.0,30.9,24.0,09.0,0000.0,0005.07,0014.19,0003.84
2023-02-11 03:47:00,,0829.1,5.00,0.00,22.2,22.7,00.0,31.0,24.3,08.9,0000.0,0005.07,0014.88,0003.82
2023-02-11 03:48:00,,0829.1,4.97,0.00,22.3,22.9,00.0,31.0,24.4,08.9,0000.0,0005.01,0015.15,0003.81
2023-02-11 03:49:00,,0829.1,4.99,0.00,22.4,22.4,00.0,31.1,24.4,08.8,0000.0,0004.99,0015.23,0003.79
2023-02-11 03:50:00,,0829.1,4.94,0.00,22.4,22.0,00.0,31.1,24.3,08.8,0000.0,0004.96,0015.33,0003.77
2023-02-11 03:51:00,,0829.2,4.99,0.00,22.4,21.7,00.0,31.1,24.3,08.8,0000.0,0004.94,0014.76,0003.77
2023-02-11 03:52:00,,0829.2,5.00,0.00,22.4,21.4,00.0,31.1,24.2,08.8,0000.0,0004.93,0014.91,0003.77
2023-02-11 03:53:00,,0829.2,4.96,0.00,22.4,21.3,00.0,31.2,24.2,09.0,0000.0,0004.95,0015.50,0003.78
2023-02-11 03:54:00,,0829.2,5.03,0.00,22.4,21.2,00.0,31.2,24.2,09.1,0000.0,0004.96,0016.44,0003.78
2023-02-11 03:55:00,,0829.2,4.98,0.00,22.4,21.2,00.0,31.2,24.2,09.1,0000.0,0005.00,0017.90,0003.78
2023-02-11 03:56:00,,0829.2,4.95,0.00,22.4,21.1,00.0,31.2,24.2,09.3,0000.0,0005.08,0018.35,0003.81
2023-02-11 03:57:00,,0829.2,5.01,0.00,22.4,21.1,00.0,31.2,24.2,09.3,0000.0,0005.06,0017.93,0003.84
2023-02-11 03:58:00,,0829.3,5.04,0.00,22.4,21.1,00.0,31.2,24.2,09.2,0000.0,0005.10,0017.54,0003.86
2023-02-11 03:59:00,,0829.2,4.94,0.00,22.4,21.0,00.0,31.2,24.2,09.1,0000.0,0005.15,0018.95,0003.87
